Time,TemperatureF,DewpointF,PressureIn,WindDirection,WindDirectionDegrees,WindSpeedMPH,WindSpeedGustMPH,Humidity,HourlyPrecipIn,Conditions,Clouds,dailyrainin,SoftwareType,DateUTC
2013-05-04 00:05:00,158.0,0.0,29.92,NW,318,31.0,34.0,0,0.00,,---,0.00,VWS V14.00,2013-05-04 05:05:00,
2013-05-04 00:15:00,158.0,0.0,29.92,NNW,332,27.0,35.0,0,0.00,,---,0.00,VWS V14.00,2013-05-04 05:15:00,
2013-05-04 00:25:00,158.0,0.0,29.92,NW,321,28.0,34.0,0,0.00,,---,0.00,VWS V14.00,2013-05-04 05:25:00,
2013-05-04 00:35:00,158.0,0.0,29.92,NNW,341,28.0,35.0,0,0.00,,---,0.00,VWS V14.00,2013-05-04 05:35:00,
2013-05-04 00:45:00,158.0,0.0,29.91,NNW,334,31.0,38.0,0,0.00,,---,0.00,VWS V14.00,2013-05-04 05:45:00,
2013-05-04 00:55:00,158.0,0.0,29.92,NNW,337,32.0,36.0,0,0.00,,---,0.00,VWS V14.00,2013-05-04 05:55:00,
2013-05-04 01:05:00,158.0,0.0,29.90,North,349,31.0,36.0,0,0.00,,---,0.00,VWS V14.00,2013-05-04 06:05:00,
2013-05-04 01:15:00,158.0,0.0,29.90,NW,322,29.0,35.0,0,0.00,,---,0.00,VWS V14.00,2013-05-04 06:15:00,
2013-05-04 01:25:00,158.0,0.0,29.90,NW,323,34.0,38.0,0,0.00,,---,0.00,VWS V14.00,2013-05-04 06:25:00,
2013-05-04 01:35:00,158.0,0.0,29.90,NNW,327,33.0,39.0,0,0.00,,---,0.00,VWS V14.00,2013-05-04 06:35:00,
2013-05-04 01:45:00,158.0,0.0,29.89,North,350,29.0,36.0,0,0.00,,---,0.00,VWS V14.00,2013-05-04 06:45:00,
2013-05-04 01:55:00,158.0,0.0,29.89,NNW,340,24.0,34.0,0,0.00,,---,0.00,VWS V14.00,2013-05-04 06:55:00,
2013-05-04 02:05:00,158.0,0.0,29.89,NW,325,28.0,36.0,0,0.00,,---,0.00,VWS V14.00,2013-05-04 07:05:00,
2013-05-04 02:15:00,158.0,0.0,29.88,NNW,340,32.0,34.0,0,0.00,,---,0.00,VWS V14.00,2013-05-04 07:15:00,
2013-05-04 02:25:00,158.0,0.0,29.88,NNW,346,29.0,33.0,0,0.00,,---,0.00,VWS V14.00,2013-05-04 07:25:00,
2013-05-04 02:35:00,158.0,0.0,29.88,NNW,332,27.0,33.0,0,0.00,,---,0.00,VWS V14.00,2013-05-04 07:35:00,
2013-05-04 02:45:00,158.0,0.0,29.88,NNW,327,27.0,33.0,0,0.00,,---,0.00,VWS V14.00,2013-05-04 07:45:00,
2013-05-04 02:55:00,158.0,0.0,29.88,NNW,330,29.0,32.0,0,0.00,,---,0.00,VWS V14.00,2013-05-04 07:55:00,
2013-05-04 03:05:00,158.0,0.0,29.88,NNW,328,27.0,33.0,0,0.00,,---,0.00,VWS V14.00,2013-05-04 08:05:00,
2013-05-04 03:15:00,158.0,0.0,29.87,NNW,342,27.0,32.0,0,0.00,,---,0.00,VWS V14.00,2013-05-04 08:15:00,
2013-05-04 03:25:00,158.0,0.0,29.88,NW,325,26.0,32.0,0,0.00,,---,0.00,VWS V14.00,2013-05-04 08:25:00,
2013-05-04 03:35:00,158.0,0.0,29.87,NNW,346,23.0,33.0,0,0.00,,---,0.00,VWS V14.00,2013-05-04 08:35:00,
2013-05-04 03:45:00,158.0,0.0,29.88,NW,325,22.0,33.0,0,0.00,,---,0.01,VWS V14.00,2013-05-04 08:45:00,
2013-05-04 03:55:00,158.0,0.0,29.88,NNW,327,23.0,32.0,0,0.00,,---,0.01,VWS V14.00,2013-05-04 08:55:00,
2013-05-04 04:05:00,158.0,0.0,29.88,NW,321,24.0,32.0,0,0.00,,---,0.01,VWS V14.00,2013-05-04 09:05:00,
2013-05-04 04:15:00,158.0,0.0,29.87,NW,324,26.0,29.0,0,0.00,,---,0.01,VWS V14.00,2013-05-04 09:15:00,
2013-05-04 04:25:00,158.0,0.0,29.88,NW,325,26.0,29.0,0,0.00,,---,0.01,VWS V14.00,2013-05-04 09:25:00,
2013-05-04 04:45:00,158.0,0.0,29.87,NNW,327,21.0,31.0,0,0.00,,---,0.01,VWS V14.00,2013-05-04 09:45:00,
2013-05-04 04:55:00,158.0,0.0,29.87,NNW,338,21.0,29.0,0,0.00,,---,0.01,VWS V14.00,2013-05-04 09:55:00,
2013-05-04 05:05:00,158.0,0.0,29.88,NW,319,26.0,29.0,0,0.00,,---,0.01,VWS V14.00,2013-05-04 10:05:00,
2013-05-04 05:15:00,158.0,0.0,29.87,NNW,328,22.0,28.0,0,0.00,,---,0.01,VWS V14.00,2013-05-04 10:15:00,
2013-05-04 05:25:00,158.0,0.0,29.88,NNW,331,21.0,29.0,0,0.00,,---,0.01,VWS V14.00,2013-05-04 10:25:00,
2013-05-04 05:35:00,158.0,0.0,29.88,NNW,332,20.0,29.0,0,0.00,,---,0.01,VWS V14.00,2013-05-04 10:35:00,
2013-05-04 05:45:00,158.0,0.0,29.88,NNW,334,25.0,29.0,0,0.00,,---,0.01,VWS V14.00,2013-05-04 10:45:00,
2013-05-04 05:55:00,158.0,0.0,29.89,NNW,338,24.0,31.0,0,0.00,,---,0.01,VWS V14.00,2013-05-04 10:55:00,
2013-05-04 06:05:00,158.0,0.0,29.89,NNW,330,23.0,28.0,0,0.00,,---,0.01,VWS V14.00,2013-05-04 11:05:00,
2013-05-04 06:15:00,158.0,0.0,29.90,NNW,338,24.0,29.0,0,0.00,,---,0.01,VWS V14.00,2013-05-04 11:15:00,
2013-05-04 06:25:00,158.0,0.0,29.89,NW,323,21.0,29.0,0,0.00,,---,0.01,VWS V14.00,2013-05-04 11:25:00,
2013-05-04 06:35:00,158.0,0.0,29.90,NNW,346,25.0,28.0,0,0.00,,---,0.01,VWS V14.00,2013-05-04 11:35:00,
2013-05-04 06:45:00,158.0,0.0,29.90,NNW,340,27.0,27.0,0,0.00,,---,0.01,VWS V14.00,2013-05-04 11:45:00,
2013-05-04 07:05:00,158.0,0.0,29.91,NW,320,22.0,27.0,0,0.00,,---,0.01,VWS V14.00,2013-05-04 12:05:00,
2013-05-04 07:35:00,158.0,0.0,29.91,NNW,342,22.0,25.0,0,0.00,,---,0.01,VWS V14.00,2013-05-04 12:35:00,
2013-05-04 07:45:00,158.0,0.0,29.91,NNW,328,22.0,23.0,0,0.00,,---,0.01,VWS V14.00,2013-05-04 12:45:00,
2013-05-04 07:55:00,158.0,0.0,29.91,NNW,327,20.0,24.0,0,0.00,,---,0.01,VWS V14.00,2013-05-04 12:55:00,
2013-05-04 08:05:00,158.0,0.0,29.92,NW,318,18.0,25.0,0,0.00,,---,0.01,VWS V14.00,2013-05-04 13:05:00,
2013-05-04 08:15:00,158.0,0.0,29.92,NNW,333,22.0,26.0,0,0.00,,---,0.01,VWS V14.00,2013-05-04 13:15:00,
2013-05-04 08:25:00,158.0,0.0,29.92,NNW,338,20.0,24.0,0,0.00,,---,0.01,VWS V14.00,2013-05-04 13:25:00,
2013-05-04 08:35:00,158.0,0.0,29.92,NW,313,20.0,26.0,0,0.00,,---,0.01,VWS V14.00,2013-05-04 13:35:00,
2013-05-04 08:45:00,158.0,0.0,29.92,NNW,339,22.0,24.0,0,0.00,,---,0.01,VWS V14.00,2013-05-04 13:45:00,
2013-05-04 08:55:00,158.0,0.0,29.92,NW,316,21.0,26.0,0,0.00,,---,0.01,VWS V14.00,2013-05-04 13:55:00,
2013-05-04 09:05:00,158.0,0.0,29.92,NW,312,24.0,26.0,0,0.00,,---,0.01,VWS V14.00,2013-05-04 14:05:00,
2013-05-04 09:15:00,158.0,0.0,29.93,NW,323,21.0,26.0,0,0.00,,---,0.01,VWS V14.00,2013-05-04 14:15:00,
2013-05-04 09:25:00,158.0,0.0,29.93,NW,319,23.0,26.0,0,0.00,,---,0.01,VWS V14.00,2013-05-04 14:25:00,
2013-05-04 09:35:00,158.0,0.0,29.93,NW,325,20.0,26.0,0,0.00,,---,0.01,VWS V14.00,2013-05-04 14:35:00,
2013-05-04 09:45:00,158.0,0.0,29.93,NW,326,17.0,23.0,0,0.00,,---,0.01,VWS V14.00,2013-05-04 14:45:00,
2013-05-04 09:55:00,158.0,0.0,29.94,NW,326,18.0,23.0,0,0.00,,---,0.01,VWS V14.00,2013-05-04 14:55:00,
2013-05-04 10:05:00,158.0,0.0,29.94,NW,323,16.0,22.0,0,0.00,,---,0.01,VWS V14.00,2013-05-04 15:05:00,
2013-05-04 10:15:00,158.0,0.0,29.93,NW,321,16.0,22.0,0,0.00,,---,0.01,VWS V14.00,2013-05-04 15:15:00,
2013-05-04 10:25:00,158.0,0.0,29.93,NW,319,20.0,22.0,0,0.00,,---,0.01,VWS V14.00,2013-05-04 15:25:00,
2013-05-04 10:35:00,158.0,0.0,29.93,NW,326,19.0,21.0,0,0.00,,---,0.01,VWS V14.00,2013-05-04 15:35:00,
2013-05-04 10:45:00,158.0,0.0,29.93,NW,325,16.0,23.0,0,0.00,,---,0.01,VWS V14.00,2013-05-04 15:45:00,
2013-05-04 10:55:00,158.0,0.0,29.94,NNW,327,18.0,25.0,0,0.00,,---,0.01,VWS V14.00,2013-05-04 15:55:00,
2013-05-04 11:05:00,158.0,0.0,29.93,NNW,333,20.0,23.0,0,0.00,,---,0.01,VWS V14.00,2013-05-04 16:05:00,
2013-05-04 11:15:00,158.0,0.0,29.93,NW,320,20.0,24.0,0,0.00,,---,0.01,VWS V14.00,2013-05-04 16:15:00,
2013-05-04 11:25:00,158.0,0.0,29.93,NW,315,17.0,26.0,0,0.00,,---,0.01,VWS V14.00,2013-05-04 16:25:00,
2013-05-04 11:35:00,158.0,0.0,29.93,NW,317,21.0,25.0,0,0.00,,---,0.01,VWS V14.00,2013-05-04 16:35:00,
2013-05-04 11:45:00,158.0,0.0,29.92,NNW,327,18.0,25.0,0,0.00,,---,0.01,VWS V14.00,2013-05-04 16:45:00,
2013-05-04 11:55:00,158.0,0.0,29.92,NW,319,20.0,25.0,0,0.00,,---,0.01,VWS V14.00,2013-05-04 16:55:00,
2013-05-04 12:05:00,158.0,0.0,29.92,NW,319,16.0,23.0,0,0.00,,---,0.01,VWS V14.00,2013-05-04 17:05:00,
2013-05-04 12:15:00,158.0,0.0,29.91,NW,320,21.0,25.0,0,0.00,,---,0.01,VWS V14.00,2013-05-04 17:15:00,
2013-05-04 12:25:00,158.0,0.0,29.91,NNW,343,19.0,24.0,0,0.00,,---,0.01,VWS V14.00,2013-05-04 17:25:00,
2013-05-04 12:35:00,158.0,0.0,29.91,NW,326,19.0,22.0,0,0.00,,---,0.01,VWS V14.00,2013-05-04 17:35:00,
2013-05-04 12:45:00,158.0,0.0,29.91,NW,309,19.0,23.0,0,0.00,,---,0.01,VWS V14.00,2013-05-04 17:45:00,
2013-05-04 12:55:00,158.0,0.0,29.90,NW,321,16.0,23.0,0,0.00,,---,0.01,VWS V14.00,2013-05-04 17:55:00,
2013-05-04 13:05:00,158.0,0.0,29.90,NNW,329,21.0,24.0,0,0.00,,---,0.01,VWS V14.00,2013-05-04 18:05:00,
2013-05-04 13:15:00,158.0,0.0,29.90,NNW,329,16.0,22.0,0,0.00,,---,0.01,VWS V14.00,2013-05-04 18:15:00,
2013-05-04 13:25:00,158.0,0.0,29.90,NW,317,19.0,25.0,0,0.00,,---,0.01,VWS V14.00,2013-05-04 18:25:00,
2013-05-04 13:35:00,158.0,0.0,29.90,NW,325,14.0,20.0,0,0.00,,---,0.01,VWS V14.00,2013-05-04 18:35:00,
2013-05-04 13:45:00,158.0,0.0,29.89,NNW,335,19.0,20.0,0,0.00,,---,0.01,VWS V14.00,2013-05-04 18:45:00,
2013-05-04 13:55:00,158.0,0.0,29.89,NNW,329,18.0,20.0,0,0.00,,---,0.01,VWS V14.00,2013-05-04 18:55:00,
2013-05-04 14:05:00,158.0,0.0,29.89,NW,323,18.0,20.0,0,0.00,,---,0.01,VWS V14.00,2013-05-04 19:05:00,
2013-05-04 14:15:00,158.0,0.0,29.89,NW,313,18.0,23.0,0,0.00,,---,0.01,VWS V14.00,2013-05-04 19:15:00,
2013-05-04 14:25:00,158.0,0.0,29.89,NW,311,19.0,23.0,0,0.00,,---,0.01,VWS V14.00,2013-05-04 19:25:00,
2013-05-04 14:35:00,158.0,0.0,29.88,NW,321,16.0,21.0,0,0.00,,---,0.01,VWS V14.00,2013-05-04 19:35:00,
2013-05-04 14:45:00,158.0,0.0,29.88,WNW,295,16.0,20.0,0,0.00,,---,0.01,VWS V14.00,2013-05-04 19:45:00,
2013-05-04 14:55:00,158.0,0.0,29.88,NNW,328,14.0,20.0,0,0.00,,---,0.01,VWS V14.00,2013-05-04 19:55:00,
2013-05-04 15:05:00,158.0,0.0,29.87,NW,315,19.0,19.0,0,0.00,,---,0.01,VWS V14.00,2013-05-04 20:05:00,
2013-05-04 15:15:00,158.0,0.0,29.87,NNW,340,16.0,23.0,0,0.00,,---,0.01,VWS V14.00,2013-05-04 20:15:00,
2013-05-04 15:25:00,158.0,0.0,29.86,NW,320,14.0,19.0,0,0.00,,---,0.01,VWS V14.00,2013-05-04 20:25:00,
2013-05-04 15:35:00,158.0,0.0,29.86,NNW,333,18.0,21.0,0,0.00,,---,0.01,VWS V14.00,2013-05-04 20:35:00,
2013-05-04 15:45:00,158.0,0.0,29.86,NNW,331,17.0,18.0,0,0.00,,---,0.01,VWS V14.00,2013-05-04 20:45:00,
2013-05-04 15:55:00,158.0,0.0,29.85,NW,307,13.0,18.0,0,0.00,,---,0.01,VWS V14.00,2013-05-04 20:55:00,
2013-05-04 16:05:00,158.0,0.0,29.85,NNW,340,14.0,22.0,0,0.00,,---,0.01,VWS V14.00,2013-05-04 21:05:00,
2013-05-04 16:15:00,158.0,0.0,29.85,NW,320,18.0,23.0,0,0.00,,---,0.01,VWS V14.00,2013-05-04 21:15:00,
2013-05-04 16:25:00,158.0,0.0,29.84,NW,312,14.0,20.0,0,0.00,,---,0.01,VWS V14.00,2013-05-04 21:25:00,
2013-05-04 16:35:00,158.0,0.0,29.85,NW,319,17.0,20.0,0,0.00,,---,0.01,VWS V14.00,2013-05-04 21:35:00,
2013-05-04 16:45:00,158.0,0.0,29.85,NNW,329,17.0,21.0,0,0.00,,---,0.01,VWS V14.00,2013-05-04 21:45:00,
2013-05-04 16:55:00,158.0,0.0,29.84,NW,321,15.0,19.0,0,0.00,,---,0.01,VWS V14.00,2013-05-04 21:55:00,
2013-05-04 17:05:00,158.0,0.0,29.84,NW,317,11.0,18.0,0,0.00,,---,0.01,VWS V14.00,2013-05-04 22:05:00,
2013-05-04 17:15:00,158.0,0.0,29.84,NW,320,15.0,17.0,0,0.00,,---,0.01,VWS V14.00,2013-05-04 22:15:00,
2013-05-04 17:25:00,158.0,0.0,29.84,NNW,338,13.0,17.0,0,0.00,,---,0.01,VWS V14.00,2013-05-04 22:25:00,
2013-05-04 17:35:00,158.0,0.0,29.83,NNW,333,9.0,15.0,0,0.00,,---,0.01,VWS V14.00,2013-05-04 22:35:00,
2013-05-04 17:45:00,158.0,0.0,29.84,NNW,336,15.0,17.0,0,0.00,,---,0.01,VWS V14.00,2013-05-04 22:45:00,
2013-05-04 17:55:00,158.0,0.0,29.84,NNW,335,14.0,15.0,0,0.00,,---,0.01,VWS V14.00,2013-05-04 22:55:00,
2013-05-04 18:05:00,158.0,0.0,29.84,NNW,329,9.0,14.0,0,0.00,,---,0.01,VWS V14.00,2013-05-04 23:05:00,
2013-05-04 18:15:00,158.0,0.0,29.84,NNW,335,12.0,15.0,0,0.00,,---,0.01,VWS V14.00,2013-05-04 23:15:00,
2013-05-04 18:25:00,158.0,0.0,29.84,NNW,329,12.0,14.0,0,0.00,,---,0.01,VWS V14.00,2013-05-04 23:25:00,
2013-05-04 18:35:00,158.0,0.0,29.84,NNW,327,13.0,15.0,0,0.00,,---,0.01,VWS V14.00,2013-05-04 23:35:00,
2013-05-04 18:45:00,158.0,0.0,29.84,NNW,339,10.0,13.0,0,0.00,,---,0.01,VWS V14.00,2013-05-04 23:45:00,
2013-05-04 18:55:00,158.0,0.0,29.84,NNW,334,10.0,14.0,0,0.00,,---,0.01,VWS V14.00,2013-05-04 23:55:00,
2013-05-04 19:05:00,158.0,0.0,29.84,NW,318,11.0,13.0,0,0.00,,---,0.01,VWS V14.00,2013-05-05 00:05:00,
2013-05-04 19:15:00,158.0,0.0,29.84,NNW,329,13.0,14.0,0,0.00,,---,0.01,VWS V14.00,2013-05-05 00:15:00,
2013-05-04 19:25:00,158.0,0.0,29.85,NW,323,12.0,14.0,0,0.00,,---,0.01,VWS V14.00,2013-05-05 00:25:00,
2013-05-04 19:35:00,158.0,0.0,29.85,NW,322,14.0,15.0,0,0.00,,---,0.01,VWS V14.00,2013-05-05 00:35:00,
2013-05-04 19:45:00,158.0,0.0,29.85,WNW,302,12.0,14.0,0,0.00,,---,0.01,VWS V14.00,2013-05-05 00:45:00,
2013-05-04 19:55:00,158.0,0.0,29.85,NW,307,11.0,15.0,0,0.00,,---,0.01,VWS V14.00,2013-05-05 00:55:00,
2013-05-04 20:05:00,158.0,0.0,29.86,NW,312,12.0,14.0,0,0.00,,---,0.01,VWS V14.00,2013-05-05 01:05:00,
2013-05-04 20:15:00,158.0,0.0,29.86,NW,311,9.0,13.0,0,0.00,,---,0.01,VWS V14.00,2013-05-05 01:15:00,
2013-05-04 20:25:00,158.0,0.0,29.87,NW,317,13.0,13.0,0,0.00,,---,0.01,VWS V14.00,2013-05-05 01:25:00,
2013-05-04 20:35:00,158.0,0.0,29.87,NNW,327,9.0,13.0,0,0.00,,---,0.01,VWS V14.00,2013-05-05 01:35:00,
2013-05-04 20:45:00,158.0,0.0,29.87,NW,317,9.0,12.0,0,0.00,,---,0.01,VWS V14.00,2013-05-05 01:45:00,
2013-05-04 20:55:00,158.0,0.0,29.88,NW,309,6.0,10.0,0,0.00,,---,0.01,VWS V14.00,2013-05-05 01:55:00,
2013-05-04 21:05:00,158.0,0.0,29.88,NW,311,7.0,9.0,0,0.00,,---,0.01,VWS V14.00,2013-05-05 02:05:00,
2013-05-04 21:15:00,158.0,0.0,29.88,WNW,301,7.0,9.0,0,0.00,,---,0.01,VWS V14.00,2013-05-05 02:15:00,
2013-05-04 21:25:00,158.0,0.0,29.88,NW,308,7.0,9.0,0,0.00,,---,0.01,VWS V14.00,2013-05-05 02:25:00,
2013-05-04 21:35:00,158.0,0.0,29.89,NW,322,7.0,9.0,0,0.00,,---,0.01,VWS V14.00,2013-05-05 02:35:00,
2013-05-04 21:45:00,158.0,0.0,29.89,North,355,4.0,7.0,0,0.00,,---,0.01,VWS V14.00,2013-05-05 02:45:00,
2013-05-04 21:55:00,158.0,0.0,29.89,North,9,2.0,6.0,0,0.00,,---,0.01,VWS V14.00,2013-05-05 02:55:00,
2013-05-04 22:05:00,158.0,0.0,29.89,North,9,3.0,4.0,0,0.00,,---,0.01,VWS V14.00,2013-05-05 03:05:00,
2013-05-04 22:15:00,158.0,0.0,29.89,ENE,73,1.0,5.0,0,0.00,,---,0.01,VWS V14.00,2013-05-05 03:15:00,
2013-05-04 22:25:00,158.0,0.0,29.89,ENE,73,1.0,2.0,0,0.00,,---,0.01,VWS V14.00,2013-05-05 03:25:00,
2013-05-04 22:35:00,158.0,0.0,29.89,ENE,73,1.0,2.0,0,0.00,,---,0.01,VWS V14.00,2013-05-05 03:35:00,
2013-05-04 22:45:00,158.0,0.0,29.89,ENE,73,2.0,3.0,0,0.00,,---,0.01,VWS V14.00,2013-05-05 03:45:00,
2013-05-04 22:55:00,158.0,0.0,29.88,ENE,73,2.0,3.0,0,0.00,,---,0.01,VWS V14.00,2013-05-05 03:55:00,
2013-05-04 23:05:00,158.0,0.0,29.88,ENE,74,2.0,3.0,0,0.00,,---,0.01,VWS V14.00,2013-05-05 04:05:00,
2013-05-04 23:15:00,158.0,0.0,29.88,ENE,74,2.0,3.0,0,0.00,,---,0.01,VWS V14.00,2013-05-05 04:15:00,
2013-05-04 23:25:00,158.0,0.0,29.88,ENE,74,2.0,3.0,0,0.00,,---,0.01,VWS V14.00,2013-05-05 04:25:00,
2013-05-04 23:35:00,158.0,0.0,29.88,ENE,74,2.0,2.0,0,0.00,,---,0.01,VWS V14.00,2013-05-05 04:35:00,
2013-05-04 23:45:00,158.0,0.0,29.88,ENE,74,1.0,3.0,0,0.00,,---,0.01,VWS V14.00,2013-05-05 04:45:00,
2013-05-04 23:55:00,158.0,0.0,29.88,ENE,74,2.0,2.0,0,0.00,,---,0.00,VWS V14.00,2013-05-05 04:55:00,